Waarnemingen

Advertentie
Mijn weer
Palermo/Punta Raisi, Italië (16405): temperatuur & dauwpunt: 13.06.2018 02:00:00 - 19.06.2018 02:00:00 (CEST)Palermo/Punta Raisi, Italië (16405): windsnelheid: 13.06.2018 02:00:00 - 19.06.2018 02:00:00 (CEST)Palermo/Punta Raisi, Italië (16405): windrichting: 13.06.2018 02:00:00 - 19.06.2018 02:00:00 (CEST)Palermo/Punta Raisi, Italië (16405): luchtdruk: 13.06.2018 02:00:00 - 19.06.2018 02:00:00 (CEST)Palermo/Punta Raisi, Italië (16405): zicht: 13.06.2018 02:00:00 - 19.06.2018 02:00:00 (CEST)Palermo/Punta Raisi, Italië (16405): neerslag: 13.06.2018 02:00:00 - 19.06.2018 02:00:00 (CEST)
Datum & Tijd tt [°C] td [°C] ff [km/u] ff [kn] dd ppp [hPa] vv [km] rr [mm]
19.06.2018 02:00:00 - - - - - - - -
19.06.2018 01:00:00 23,0 20,0 5 3 NW - 10 -
19.06.2018 00:00:00 23,0 20,0 8 4 NW - 10 -
18.06.2018 23:00:00 22,9 20,0 11 6 NNW 1014,4 10 0,0
18.06.2018 22:00:00 23,0 20,0 9 5 NW - 10 -
18.06.2018 21:00:00 23,0 19,0 4 2 - - 10 -
18.06.2018 20:00:00 23,1 19,6 11 6 NW 1013,4 10 -
18.06.2018 19:00:00 24,0 19,0 5 3 WNW - 10 -
18.06.2018 18:00:00 24,0 20,0 8 4 W - 10 -
18.06.2018 17:00:00 23,7 20,0 11 6 WNW 1013,3 10 0,0
18.06.2018 16:00:00 23,0 20,0 15 8 WNW - 10 -
18.06.2018 15:00:00 24,0 20,0 16 9 NW - 10 -
18.06.2018 14:00:00 23,9 19,6 15 8 NW 1014,0 10 -
18.06.2018 13:00:00 23,0 19,0 16 9 WNW - 10 -
18.06.2018 12:00:00 24,0 19,0 15 8 NW - 10 -
18.06.2018 11:00:00 23,5 17,9 13 7 NNW 1014,1 10 0,0
18.06.2018 10:00:00 23,0 17,0 5 3 NW - 10 -
18.06.2018 09:00:00 23,0 17,0 4 2 - - 10 -
18.06.2018 08:00:00 22,6 16,9 5 3 ZZO 1013,8 10 -
18.06.2018 07:00:00 21,0 17,0 11 6 ZZO - 10 -
18.06.2018 06:00:00 20,0 17,0 8 4 Z - 10 -
18.06.2018 05:00:00 20,9 18,3 8 4 ZW 1013,9 10 0,0
18.06.2018 04:00:00 22,0 19,0 9 5 W - 10 -
18.06.2018 03:00:00 - - - - - - - -
18.06.2018 02:00:00 21,8 19,1 9 5 ZW 1014,6 10 -
18.06.2018 01:00:00 22,0 19,0 9 5 W - 10 -
18.06.2018 00:00:00 20,0 17,0 8 4 Z - 10 -
17.06.2018 23:00:00 21,2 18,6 5 3 ZZW 1015,2 10 0,0
17.06.2018 22:00:00 21,0 19,0 5 3 ZZW - 10 -
17.06.2018 21:00:00 22,0 19,0 8 4 WZW - 10 -
17.06.2018 20:00:00 22,0 19,5 15 8 W 1014,8 10 -
17.06.2018 19:00:00 23,0 19,0 13 7 W - 10 -
17.06.2018 18:00:00 23,0 19,0 13 7 W - 10 -
17.06.2018 17:00:00 23,9 19,0 13 7 NW 1014,8 10 0,0
17.06.2018 16:00:00 24,0 19,0 15 8 WNW - 10 -
17.06.2018 15:00:00 24,0 20,0 13 7 WNW - 10 -
17.06.2018 14:00:00 23,8 19,4 13 7 WNW 1015,2 - -
17.06.2018 13:00:00 23,0 19,0 15 8 WNW - 10 -
17.06.2018 12:00:00 23,0 18,0 15 8 WNW - 10 -
17.06.2018 11:00:00 23,0 18,8 13 7 WNW 1014,6 - 0,0
17.06.2018 10:00:00 22,0 19,0 9 5 W - 10 -
17.06.2018 09:00:00 22,0 19,0 8 4 WZW - 10 -
17.06.2018 08:00:00 21,7 18,2 11 6 WZW 1013,9 10 -
17.06.2018 07:00:00 20,0 17,0 9 5 ZZO - 10 -
17.06.2018 06:00:00 20,0 17,0 5 3 ZZO - 10 -
17.06.2018 05:00:00 20,8 17,4 4 2 - 1013,0 10 0,0
17.06.2018 04:00:00 22,0 19,0 9 5 NW - 10 -
17.06.2018 03:00:00 22,0 18,0 11 6 NW - 10 -
17.06.2018 02:00:00 22,0 18,6 18 10 NW 1013,5 10 -
17.06.2018 01:00:00 22,0 19,0 16 9 NW - 10 -
17.06.2018 00:00:00 22,0 19,0 18 10 WNW - 10 -
16.06.2018 23:00:00 21,9 19,4 21 11 W 1013,6 10 0,0
16.06.2018 22:00:00 22,0 20,0 22 12 W - 10 -
16.06.2018 21:00:00 22,0 20,0 24 13 W - 10 -
16.06.2018 20:00:00 21,9 18,7 18 10 W 1012,3 10 -
16.06.2018 19:00:00 23,0 19,0 21 11 W - 9 -
16.06.2018 18:00:00 23,0 20,0 21 11 W - 9 -
16.06.2018 17:00:00 22,6 19,4 22 12 W 1012,1 9 0,0
16.06.2018 16:00:00 - - - - - - - -
16.06.2018 15:00:00 23,0 20,0 18 10 WNW - 9 -
16.06.2018 14:00:00 22,8 19,9 22 12 W 1012,3 10 -
16.06.2018 13:00:00 23,0 19,0 24 13 WNW - 10 -
16.06.2018 12:00:00 23,0 20,0 22 12 W - 10 -
16.06.2018 11:00:00 22,5 19,7 21 11 W 1011,7 10 0,0
16.06.2018 10:00:00 22,0 19,0 18 10 W - 10 -
16.06.2018 09:00:00 22,0 19,0 16 9 W - 10 -
16.06.2018 08:00:00 22,0 19,0 16 9 W 1010,9 10 -
16.06.2018 07:00:00 22,0 19,0 21 11 W - 10 -
16.06.2018 06:00:00 22,0 19,0 26 14 WNW - 10 -
16.06.2018 05:00:00 21,7 19,0 18 10 W 1010,5 10 0,0
16.06.2018 04:00:00 21,0 18,0 18 10 W - 10 -
16.06.2018 03:00:00 22,0 18,0 22 12 W - 10 -
16.06.2018 02:00:00 21,8 18,9 22 12 W 1010,9 10 -
16.06.2018 01:00:00 22,0 19,0 28 15 W - 10 -
16.06.2018 00:00:00 22,0 19,0 21 11 W - 10 -
15.06.2018 23:00:00 21,7 18,9 18 10 W 1011,1 10 0,0
15.06.2018 22:00:00 22,0 19,0 21 11 W - 10 -
15.06.2018 21:00:00 22,0 19,0 16 9 W - 10 -
15.06.2018 20:00:00 21,9 19,1 21 11 W 1010,4 10 -
15.06.2018 19:00:00 22,0 19,0 28 15 W - 10 -
15.06.2018 18:00:00 22,0 19,0 26 14 W - 10 -
15.06.2018 17:00:00 22,4 18,9 26 14 W 1009,8 10 0,0
15.06.2018 16:00:00 22,0 19,0 26 14 W - 10 -
15.06.2018 15:00:00 23,0 19,0 24 13 WNW - 10 -
15.06.2018 14:00:00 22,8 18,8 22 12 WNW 1010,0 10 -
15.06.2018 13:00:00 23,0 19,0 21 11 NW - 10 -
15.06.2018 12:00:00 23,0 19,0 22 12 NW - 10 -
15.06.2018 11:00:00 22,8 19,4 15 8 NW 1009,0 10 0,0
15.06.2018 10:00:00 22,0 18,0 16 9 NNW - 10 -
15.06.2018 09:00:00 22,0 18,0 16 9 NW - 10 -
15.06.2018 08:00:00 21,8 18,0 22 12 NW 1008,3 10 -
15.06.2018 07:00:00 21,0 18,0 22 12 NNW - 10 -
15.06.2018 06:00:00 21,0 18,0 21 11 NW - 10 -
15.06.2018 05:00:00 21,0 17,8 21 11 NW 1007,5 - 0,0
15.06.2018 04:00:00 - - - - - - - -
15.06.2018 03:00:00 22,0 17,0 21 11 NW - 10 -
15.06.2018 02:00:00 21,3 17,0 18 10 NW 1007,9 10 -
15.06.2018 01:00:00 21,0 17,0 21 11 NW - 10 -
15.06.2018 00:00:00 21,0 17,0 21 11 NW - 10 -
14.06.2018 23:00:00 21,3 17,6 21 11 NW 1008,1 10 0,0
14.06.2018 22:00:00 22,0 18,0 21 11 NW - 10 -
14.06.2018 21:00:00 22,0 18,0 26 14 WNW - 10 -
14.06.2018 20:00:00 21,5 17,7 21 11 WNW 1006,8 10 -
14.06.2018 19:00:00 21,0 18,0 31 17 W - 10 -
14.06.2018 18:00:00 22,0 17,0 26 14 WZW - 10 -
14.06.2018 17:00:00 21,3 17,6 35 19 W 1006,3 10 0,0
14.06.2018 16:00:00 22,0 18,0 31 17 W - 10 -
14.06.2018 15:00:00 22,0 17,0 31 17 W - 9 -
14.06.2018 14:00:00 21,5 17,3 37 20 W 1006,6 9 -
14.06.2018 13:00:00 22,0 17,0 34 18 W - 9 -
14.06.2018 12:00:00 22,0 17,0 37 20 W - 9 -
14.06.2018 11:00:00 21,5 17,2 39 21 W 1006,7 9 0,0
14.06.2018 10:00:00 21,0 18,0 42 23 W - 9 -
14.06.2018 09:00:00 20,0 17,0 21 11 WZW - 10 -
14.06.2018 08:00:00 20,8 18,1 37 20 WZW 1006,0 8 -
14.06.2018 07:00:00 21,0 16,0 26 14 WZW - 10 -
14.06.2018 06:00:00 - - - - - - - -
14.06.2018 05:00:00 21,3 17,7 41 22 W 1006,9 10 0,0
14.06.2018 04:00:00 22,0 17,0 39 21 W - 10 -
14.06.2018 03:00:00 21,0 17,0 34 18 W - 10 -
14.06.2018 02:00:00 21,5 18,0 29 16 WZW 1007,6 10 -
14.06.2018 01:00:00 22,0 17,0 26 14 WZW - 10 -
14.06.2018 00:00:00 22,0 17,0 26 14 WZW - 10 -
13.06.2018 23:00:00 21,7 17,4 34 18 W 1008,6 10 0,0
13.06.2018 22:00:00 22,0 17,0 26 14 WZW - 10 -
13.06.2018 21:00:00 22,0 18,0 31 17 W - 10 -
13.06.2018 20:00:00 22,5 17,6 29 16 W 1008,6 10 -
13.06.2018 19:00:00 24,0 16,0 21 11 ZW - 10 -
13.06.2018 18:00:00 23,0 17,0 22 12 WZW - 10 -
13.06.2018 17:00:00 22,8 18,3 21 11 W 1009,0 10 0,0
13.06.2018 16:00:00 23,0 19,0 26 14 W - 10 -
13.06.2018 15:00:00 22,0 18,0 26 14 W - 10 -
13.06.2018 14:00:00 22,2 17,4 31 17 W 1010,2 10 -
13.06.2018 13:00:00 22,0 18,0 31 17 W - 10 -
13.06.2018 12:00:00 22,0 18,0 31 17 W - 10 -
13.06.2018 11:00:00 21,9 18,1 26 14 W 1010,4 10 0,0
13.06.2018 10:00:00 22,0 18,0 22 12 W - 10 -
13.06.2018 09:00:00 22,0 17,0 18 10 ZW - 10 -
13.06.2018 08:00:00 22,2 17,1 16 9 ZZW 1010,9 10 -
13.06.2018 07:00:00 22,0 18,0 16 9 ZZW - 10 -
13.06.2018 06:00:00 20,0 17,0 16 9 ZW - 10 -
13.06.2018 05:00:00 19,4 16,7 8 4 Z 1010,3 10 0,0
13.06.2018 04:00:00 19,0 17,0 9 5 Z - 10 -
13.06.2018 03:00:00 21,0 19,0 9 5 ZW - 10 -
13.06.2018 02:00:00 19,7 16,4 8 4 ZZO 1011,4 10 -

tt = temperatuur
td = dauwpunt
ff = windsnelheid
dd = windrichting
ppp = luchtdruk
vv = zicht
rr = neerslag

Weerstations in de omgeving